EW7146 Weather Reports


time (UTC)temp
C
wind
direction
speed
KPH
gust
KPH
rain 1hr
cm
rain 24hr
cm
rain mn
cm
humidity
%
barometer
mb
20260506151118 18 106 4.8 8.0 0.00 0.00 0.00 52 1025.2
20260506150619 17 18 0.0 11.3 0.00 0.00 0.00 52 1025.3
20260506150118 16 55 6.4 11.3 0.00 0.00 0.00 53 1025.3
20260506145618 16 63 3.2 11.3 0.00 0.00 0.00 54 1025.5
20260506145118 16 99 6.4 11.3 0.00 0.00 0.00 54 1025.4
20260506144619 15 117 1.6 8.0 0.00 0.00 0.00 56 1025.6
20260506144116 15 72 0.0 8.0 0.00 0.00 0.00 57 1025.6
20260506143844 14 106 1.6 6.4 0.00 0.00 0.00 58 1025.6
20260506143119 13 65 3.2 8.0 0.00 0.00 0.00 59 1025.5
20260506142618 13 109 3.2 8.0 0.00 0.00 0.00 60 1025.6
20260506142341 12 55 0.0 4.8 0.00 0.00 0.00 64 1025.7
20260506141616 12 103 1.6 4.8 0.00 0.00 0.00 65 1025.6
20260506141116 12 100 1.6 4.8 0.00 0.00 0.00 65 1025.6
20260506140617 11 61 0.0 3.2 0.00 0.00 0.00 66 1025.7
20260506140117 11 93 0.0 3.2 0.00 0.00 0.00 68 1025.7
20260506135618 11 113 0.0 4.8 0.00 0.00 0.00 68 1025.6
20260506135116 11 82 1.6 4.8 0.00 0.00 0.00 68 1025.6
20260506134845 11 104 1.6 4.8 0.00 0.00 0.00 66 1025.6
20260506134117 11 34 1.6 4.8 0.00 0.00 0.00 68 1025.6
20260506133617 10 285 0.0 4.8 0.00 0.00 0.00 68 1025.7
20260506133348 10 100 0.0 4.8 0.00 0.00 0.00 69 1025.6
20260506132842 10 72 0.0 4.8 0.00 0.00 0.00 69 1025.6
20260506132116 10 96 1.6 8.0 0.00 0.00 0.00 69 1025.5
20260506131841 10 164 0.0 8.0 0.00 0.00 0.00 68 1025.6
20260506131117 9 86 1.6 6.4 0.00 0.00 0.00 70 1025.4
20260506130615 9 111 0.0 6.4 0.00 0.00 0.00 71 1025.6
20260506130117 9 54 3.2 6.4 0.00 0.00 0.00 70 1025.6
20260506125615 9 259 0.0 6.4 0.00 0.00 0.00 70 1025.6
20260506125340 9 24 1.6 6.4 0.00 0.00 0.00 68 1025.5
20260506124620 10 127 3.2 6.4 0.00 0.00 0.00 67 1025.5
20260506124114 9 127 0.0 4.8 0.00 0.00 0.00 67 1025.5
20260506124100 9 121 0.0 6.4 0.00 0.00 0.00 67 1025.4
20260506123111 9 135 0.0 6.4 0.00 0.00 0.00 68 1025.4
20260506122613 9 130 0.0 3.2 0.00 0.00 0.00 67 1025.4
20260506122114 10 172 0.0 4.8 0.00 0.00 0.00 66 1025.3
20260506121616 10 144 1.6 4.8 0.00 0.00 0.00 65 1025.3
20260506121114 10 54 1.6 3.2 0.00 0.00 0.00 65 1025.3
20260506120615 10 131 0.0 4.8 0.00 0.00 0.00 64 1025.2
20260506120340 10 149 4.8 4.8 0.00 0.00 0.00 64 1025.2
20260506115610 10 116 0.0 4.8 0.00 0.00 0.00 63 1025.2
20260506115112 10 106 1.6 8.0 0.00 0.00 0.00 63 1025.2
20260506114610 10 279 3.2 8.0 0.00 0.00 0.00 63 1025.2
20260506114112 10 305 0.0 8.0 0.00 0.00 0.00 64 1025.3
20260506113613 10 204 3.2 8.0 0.00 0.00 0.00 64 1025.2
20260506113113 10 199 0.0 4.8 0.00 0.00 0.00 65 1025.2
20260506112613 10 127 0.0 4.8 0.00 0.00 0.00 65 1025.2
20260506112109 10 158 0.0 6.4 0.00 0.00 0.00 66 1025.3
20260506111610 10 279 1.6 6.4 0.00 0.00 0.00 64 1025.3
20260506111110 10 219 0.0 6.4 0.00 0.00 0.00 63 1025.3
20260506110611 11 158 3.2 6.4 0.00 0.00 0.00 62 1025.2
20260506110109 11 240 0.0 4.8 0.00 0.00 0.00 61 1025.3
20260506105610 11 121 1.6 6.4 0.00 0.00 0.00 60 1025.1
20260506105112 11 145 3.2 9.7 0.00 0.00 0.00 60 1025.2
20260506104612 11 137 6.4 9.7 0.00 0.00 0.00 62 1025.1
20260506104113 11 104 3.2 4.8 0.00 0.00 0.00 61 1025.2
20260506103612 11 58 1.6 6.4 0.00 0.00 0.00 62 1025.2
20260506103112 11 116 6.4 6.4 0.00 0.00 0.00 61 1025.2
20260506103102 11 329 0.0 4.8 0.00 0.00 0.00 60 1025.2
20260506102113 11 152 1.6 4.8 0.00 0.00 0.00 59 1025.1
20260506101612 12 213 0.0 4.8 0.00 0.00 0.00 58 1025.1
20260506101113 12 186 3.2 3.2 0.00 0.00 0.00 58 1025.1
20260506100611 12 240 0.0 3.2 0.00 0.00 0.00 59 1025.1
20260506100111 12 216 0.0 4.8 0.00 0.00 0.00 58 1025.0
20260506095832 12 162 3.2 4.8 0.00 0.00 0.00 58 1025.0
20260506095112 12 238 1.6 3.2 0.00 0.00 0.00 58 1025.1
20260506094611 12 217 1.6 3.2 0.00 0.00 0.00 58 1025.0
20260506094111 12 202 0.0 3.2 0.00 0.00 0.00 57 1025.0
20260506093611 13 228 0.0 3.2 0.00 0.00 0.00 56 1025.0
20260506093110 13 200 1.6 4.8 0.00 0.00 0.00 55 1025.0
20260506092612 13 278 0.0 4.8 0.00 0.00 0.00 54 1025.1
20260506092110 13 276 0.0 6.4 0.00 0.00 0.00 54 1025.1
20260506091610 13 275 3.2 6.4 0.00 0.00 0.00 54 1025.1
20260506091109 13 314 3.2 6.4 0.00 0.00 0.00 53 1025.1
20260506090610 14 144 1.6 8.0 0.00 0.00 0.00 52 1024.9
20260506090111 14 151 3.2 8.0 0.00 0.00 0.00 52 1024.9
20260506085610 14 251 3.2 6.4 0.00 0.00 0.00 52 1024.9
20260506085110 15 217 1.6 8.0 0.00 0.00 0.00 53 1025.0
20260506084610 14 217 4.8 8.0 0.00 0.00 0.00 53 1024.9
20260506084343 13 135 4.8 8.0 0.00 0.00 0.00 55 1024.8
20260506083610 13 182 1.6 6.4 0.00 0.00 0.00 55 1024.9
20260506083109 13 154 3.2 6.4 0.00 0.00 0.00 56 1024.8
20260506082609 14 144 3.2 6.4 0.00 0.00 0.00 55 1024.8
20260506082329 14 199 1.6 6.4 0.00 0.00 0.00 54 1024.8
20260506081610 15 144 3.2 6.4 0.00 0.00 0.00 53 1024.7
20260506081109 15 134 0.0 6.4 0.00 0.00 0.00 52 1024.6
20260506080610 16 151 0.0 6.4 0.00 0.00 0.00 50 1024.6
20260506080108 16 107 1.6 6.4 0.00 0.00 0.00 49 1024.6
20260506073109 19 282 1.6 14.5 0.00 0.00 0.00 44 1024.4
20260506072608 19 269 4.8 14.5 0.00 0.00 0.00 44 1024.2
20260506072109 19 268 3.2 14.5 0.00 0.00 0.00 44 1024.2
20260506071607 18 300 4.8 20.9 0.00 0.00 0.00 44 1024.2
20260506071107 18 300 4.8 20.9 0.00 0.00 0.00 45 1024.4
20260506070834 18 265 4.8 16.1 0.00 0.00 0.00 45 1024.4
20260506070107 18 276 6.4 9.7 0.00 0.00 0.00 46 1024.2
20260506062107 18 268 0.0 4.8 0.00 0.00 0.00 47 1024.2
20260506061606 18 279 1.6 4.8 0.00 0.00 0.00 47 1024.1
20260506061107 17 226 0.0 4.8 0.00 0.00 0.00 48 1024.0
20260506060606 18 258 0.0 1.6 0.00 0.00 0.00 47 1024.0
20260506060107 18 128 0.0 1.6 0.00 0.00 0.00 46 1024.0
20260506051105 21 293 3.2 9.7 0.00 0.00 0.00 39 1023.5
20260506050606 21 275 1.6 9.7 0.00 0.00 0.00 39 1023.5
20260506050332 21 286 1.6 8.0 0.00 0.00 0.00 39 1023.4
20260506045104 21 300 3.2 16.1 0.00 0.00 0.00 38 1023.3
20260506044605 21 288 3.2 14.5 0.00 0.00 0.00 38 1023.3
20260506044104 22 278 3.2 14.5 0.00 0.00 0.00 38 1023.3
20260506043604 22 271 4.8 11.3 0.00 0.00 0.00 37 1023.2
20260506043105 22 338 4.8 9.7 0.00 0.00 0.00 37 1023.1
20260506042604 22 258 1.6 11.3 0.00 0.00 0.00 37 1023.1
20260506042105 22 269 4.8 16.1 0.00 0.00 0.00 36 1023.1
20260506041604 22 276 6.4 16.1 0.00 0.00 0.00 36 1023.0
20260506041103 22 262 6.4 16.1 0.00 0.00 0.00 36 1022.9
20260506040603 22 275 8.0 16.1 0.00 0.00 0.00 36 1022.9
20260506040104 22 265 8.0 17.7 0.00 0.00 0.00 35 1022.7
20260506035604 22 261 6.4 17.7 0.00 0.00 0.00 35 1022.6
20260506035106 23 283 4.8 17.7 0.00 0.00 0.00 35 1022.5
20260506035059 22 278 6.4 11.3 0.00 0.00 0.00 35 1022.4
20260506034103 23 285 4.8 11.3 0.00 0.00 0.00 34 1022.4
20260506033604 23 295 4.8 17.7 0.00 0.00 0.00 34 1022.3
20260506033102 23 275 4.8 17.7 0.00 0.00 0.00 33 1022.2
20260506032603 23 279 4.8 17.7 0.00 0.00 0.00 33 1022.0
20260506032103 23 285 6.4 17.7 0.00 0.00 0.00 33 1022.0
20260506031602 23 285 8.0 19.3 0.00 0.00 0.00 32 1021.9
20260506031321 23 268 6.4 19.3 0.00 0.00 0.00 32 1021.9
20260506030601 23 285 6.4 22.5 0.00 0.00 0.00 32 1021.7
20260506030103 23 259 9.7 22.5 0.00 0.00 0.00 32 1021.6
20260506025601 24 292 3.2 16.1 0.00 0.00 0.00 32 1021.6
20260506025104 24 285 6.4 14.5 0.00 0.00 0.00 31 1021.5
20260506024829 24 265 1.6 11.3 0.00 0.00 0.00 31 1021.5
20260506024322 25 289 4.8 14.5 0.00 0.00 0.00 30 1021.5
20260506023602 25 288 6.4 14.5 0.00 0.00 0.00 30 1021.4
20260506023101 25 252 3.2 20.9 0.00 0.00 0.00 29 1021.5
20260506022602 26 289 4.8 20.9 0.00 0.00 0.00 28 1021.4
20260506022100 26 274 3.2 14.5 0.00 0.00 0.00 27 1021.5
20260506021602 26 243 3.2 20.9 0.00 0.00 0.00 27 1021.5
20260506021100 26 298 8.0 20.9 0.00 0.00 0.00 26 1021.5
20260506020603 27 269 3.2 20.9 0.00 0.00 0.00 26 1021.5
20260506020318 27 279 4.8 17.7 0.00 0.00 0.00 25 1021.4
20260506015600 27 240 8.0 17.7 0.00 0.00 0.00 25 1021.3
20260506015100 27 45 4.8 19.3 0.00 0.00 0.00 26 1021.4
20260506014808 28 319 8.0 14.5 0.00 0.00 0.00 24 1021.1
20260506014654 27 271 9.7 19.3 0.00 0.00 0.00 24 1021.3
20260506013600 28 290 1.6 14.5 0.00 0.00 0.00 25 1021.3
20260506013101 28 330 3.2 14.5 0.00 0.00 0.00 24 1021.3
20260506012600 28 275 1.6 9.7 0.00 0.00 0.00 24 1021.3
20260506012106 28 282 1.6 9.7 0.00 0.00 0.00 24 1021.3
20260506011600 28 298 3.2 8.0 0.00 0.00 0.00 24 1021.3
20260506011326 28 282 3.2 8.0 0.00 0.00 0.00 24 1021.1
20260506010559 28 279 3.2 8.0 0.00 0.00 0.00 24 1021.1
20260506010059 29 25 1.6 16.1 0.00 0.00 0.00 24 1021.1
20260506005600 28 286 0.0 16.1 0.00 0.00 0.00 23 1021.1
20260506005058 28 245 4.8 14.5 0.00 0.00 0.00 23 1021.1
20260506004600 29 266 1.6 14.5 0.00 0.00 0.00 23 1021.1
20260506004059 29 282 1.6 11.3 0.00 0.00 0.00 23 1021.1
20260506003600 28 285 3.2 11.3 0.00 0.00 0.00 23 1021.1
20260506003321 29 324 1.6 11.3 0.00 0.00 0.00 23 1021.1
20260506002558 29 293 0.0 9.7 0.00 0.00 0.00 23 1021.1
20260506002059 29 283 3.2 11.3 0.00 0.00 0.00 22 1021.3
20260506001558 29 238 8.0 11.3 0.00 0.00 0.00 21 1021.3
20260506001059 29 302 3.2 6.4 0.00 0.00 0.00 22 1021.3
20260506000559 29 302 0.0 17.7 0.00 0.00 0.00 23 1021.4
20260506000317 28 288 6.4 17.7 0.00 0.00 0.00 22 1021.5
20260505235558 28 283 3.2 8.0 0.00 0.00 0.00 22 1021.5
20260505235059 28 245 3.2 9.7 0.00 0.00 0.00 22 1021.5
20260505234558 28 261 3.2 9.7 0.00 0.00 0.00 23 1021.6
20260505234057 28 314 4.8 8.0 0.00 0.00 0.00 22 1021.6
20260505233604 28 265 4.8 6.4 0.00 0.00 0.00 21 1021.6
20260505233326 28 182 0.0 6.4 0.00 0.00 0.00 22 1021.6
20260505232559 28 286 3.2 9.7 0.00 0.00 0.00 21 1021.7
20260505232057 28 264 3.2 9.7 0.00 0.00 0.00 20 1021.6
20260505231558 28 293 6.4 16.1 0.00 0.00 0.00 21 1021.7
20260505231057 29 269 4.8 16.1 0.00 0.00 0.00 22 1021.8
20260505230556 30 281 3.2 8.0 0.00 0.00 0.00 21 1021.8
20260505230057 30 281 3.2 8.0 0.00 0.00 0.00 21 1021.8
20260505225557 30 3 0.0 8.0 0.00 0.00 0.00 22 1021.8
20260505225057 30 62 3.2 8.0 0.00 0.00 0.00 22 1021.8
20260505224556 29 269 1.6 9.7 0.00 0.00 0.00 20 1021.9
20260505224056 29 320 1.6 9.7 0.00 0.00 0.00 21 1021.9
20260505223556 29 62 1.6 9.7 0.00 0.00 0.00 21 1022.0
20260505223057 29 326 3.2 20.9 0.00 0.00 0.00 21 1022.1
20260505222556 29 274 3.2 20.9 0.00 0.00 0.00 21 1022.1
20260505222057 29 279 3.2 11.3 0.00 0.00 0.00 21 1022.1
20260505221556 29 283 1.6 8.0 0.00 0.00 0.00 21 1022.2
20260505221056 29 100 4.8 8.0 0.00 0.00 0.00 19 1022.2
20260505220557 29 279 1.6 9.7 0.00 0.00 0.00 20 1022.2
20260505220055 29 337 3.2 17.7 0.00 0.00 0.00 21 1022.2
20260505215556 28 271 6.4 19.3 0.00 0.00 0.00 20 1022.3
20260505215055 28 292 9.7 19.3 0.00 0.00 0.00 20 1022.3
20260505214556 28 185 6.4 14.5 0.00 0.00 0.00 21 1022.3
20260505214055 28 226 6.4 14.5 0.00 0.00 0.00 20 1022.5
20260505213830 28 312 3.2 19.3 0.00 0.00 0.00 20 1022.6
20260505213551 28 321 3.2 19.3 0.00 0.00 0.00 21 1022.6
20260505212600 28 278 11.3 17.7 0.00 0.00 0.00 19 1022.6
20260505212055 28 258 4.8 14.5 0.00 0.00 0.00 20 1022.7
20260505211554 28 282 4.8 11.3 0.00 0.00 0.00 20 1022.7
20260505211322 28 295 6.4 17.7 0.00 0.00 0.00 19 1022.7
20260505210824 28 293 8.0 17.7 0.00 0.00 0.00 19 1022.9
20260505210320 28 281 6.4 17.7 0.00 0.00 0.00 20 1022.9
20260505205553 28 278 6.4 19.3 0.00 0.00 0.00 20 1023.0
20260505205053 28 275 8.0 24.1 0.00 0.00 0.00 20 1023.0
20260505204819 28 268 11.3 24.1 0.00 0.00 0.00 21 1023.2
20260505204053 28 265 12.9 19.3 0.00 0.00 0.00 21 1023.2
20260505203555 28 238 6.4 19.3 0.00 0.00 0.00 20 1023.2
20260505203053 28 278 9.7 19.3 0.00 0.00 0.00 21 1023.1
20260505202554 27 250 9.7 19.3 0.00 0.00 0.00 22 1023.2
20260505202052 27 268 8.0 19.3 0.00 0.00 0.00 21 1023.2
20260505202040 27 288 8.0 22.5 0.00 0.00 0.00 21 1023.3
20260505201053 27 290 6.4 22.5 0.00 0.00 0.00 21 1023.3
20260505200552 28 258 1.6 11.3 0.00 0.00 0.00 24 1023.3
20260505200053 28 55 0.0 8.0 0.00 0.00 0.00 22 1023.3
20260505195812 27 73 1.6 8.0 0.00 0.00 0.00 25 1023.5
20260505195054 28 47 1.6 11.3 0.00 0.00 0.00 24 1023.5
20260505194551 27 195 6.4 11.3 0.00 0.00 0.00 24 1023.5
20260505194053 27 135 3.2 11.3 0.00 0.00 0.00 25 1023.5
20260505193552 27 118 4.8 11.3 0.00 0.00 0.00 26 1023.6
20260505193052 26 138 6.4 9.7 0.00 0.00 0.00 26 1023.5
20260505192816 26 172 6.4 9.7 0.00 0.00 0.00 26 1023.6
20260505192053 26 193 6.4 9.7 0.00 0.00 0.00 26 1023.7
20260505191554 26 90 6.4 9.7 0.00 0.00 0.00 26 1023.8
20260505191052 26 107 4.8 8.0 0.00 0.00 0.00 27 1023.9
20260505190557 26 85 3.2 9.7 0.00 0.00 0.00 28 1023.9
20260505190052 25 133 4.8 11.3 0.00 0.00 0.00 28 1024.0
20260505185552 25 166 1.6 11.3 0.00 0.00 0.00 29 1024.0
20260505185051 25 130 6.4 9.7 0.00 0.00 0.00 29 1024.2
20260505184551 24 124 1.6 8.0 0.00 0.00 0.00 30 1024.1
20260505184051 24 217 3.2 8.0 0.00 0.00 0.00 29 1024.2
20260505183547 24 59 1.6 14.5 0.00 0.00 0.00 30 1024.4
20260505183051 24 96 6.4 14.5 0.00 0.00 0.00 29 1024.4
20260505182556 24 100 3.2 11.3 0.00 0.00 0.00 32 1024.4
20260505182052 23 82 4.8 14.5 0.00 0.00 0.00 32 1024.4
20260505181550 23 62 4.8 14.5 0.00 0.00 0.00 32 1024.5
20260505181100 23 100 4.8 14.5 0.00 0.00 0.00 32 1024.6
20260505180550 23 130 4.8 9.7 0.00 0.00 0.00 33 1024.6
20260505180310 23 134 4.8 8.0 0.00 0.00 0.00 34 1024.6
20260505175547 22 71 4.8 11.3 0.00 0.00 0.00 35 1024.7
20260505175046 22 93 4.8 11.3 0.00 0.00 0.00 34 1024.7
20260505174550 22 111 4.8 9.7 0.00 0.00 0.00 36 1024.8
20260505174529 21 59 4.8 11.3 0.00 0.00 0.00 39 1024.8
20260505174147 22 58 3.2 9.7 0.00 0.00 0.00 39 1024.8
20260505173050 21 80 1.6 11.3 0.00 0.00 0.00 40 1024.9
20260505172549 21 110 3.2 11.3 0.00 0.00 0.00 40 1024.9
20260505172054 21 65 4.8 9.7 0.00 0.00 0.00 42 1024.9
20260505171545 21 133 6.4 9.7 0.00 0.00 0.00 42 1024.9
20260505171046 20 71 4.8 8.0 0.00 0.00 0.00 41 1024.9
20260505170548 20 52 6.4 9.7 0.00 0.00 0.00 41 1025.0
20260505170050 20 113 4.8 9.7 0.00 0.00 0.00 41 1025.0
20260505165548 20 41 4.8 8.0 0.00 0.00 0.00 43 1025.1
20260505165050 20 117 1.6 8.0 0.00 0.00 0.00 40 1025.2
20260505164549 20 114 3.2 8.0 0.00 0.00 0.00 41 1025.2
20260505164048 19 92 3.2 8.0 0.00 0.00 0.00 41 1025.1
20260505163553 19 76 3.2 8.0 0.00 0.00 0.00 41 1025.1
20260505163308 19 89 3.2 8.0 0.00 0.00 0.00 42 1025.2
20260505162548 18 72 3.2 11.3 0.00 0.00 0.00 44 1025.1
20260505162110 18 62 3.2 11.3 0.00 0.00 0.00 44 1025.2
20260505161552 18 124 3.2 9.7 0.00 0.00 0.00 44 1025.2
20260505161053 18 116 3.2 9.7 0.00 0.00 0.00 48 1025.1
20260505160858 18 55 3.2 8.0 0.00 0.00 0.00 47 1025.3
20260505153047 17 111 0.0 4.8 0.00 0.00 0.00 49 1025.4
20260505152546 16 147 0.0 4.8 0.00 0.00 0.00 50 1025.4
20260505152046 16 125 0.0 3.2 0.00 0.00 0.00 52 1025.5
20260505151548 16 106 0.0 0.0 0.00 0.00 0.00 53 1025.4
20260505151305 16 111 0.0 0.0 0.00 0.00 0.00 55 1025.5